Presure
185 178 168 176 201 185 187 177 186 207 200 209 225 253 208 226 227 206 225 224 224 217 219 235 247 269 272 226 218 202 200 202 215 190 189 189 189 190 192 196 194 196 204 143
174 178 169 169 203 176 158 186 199 196 193 196 217 204 257 261 229 219 215 228 222 223 229 229 234 233 222 254 247 249 240 213 203 212 200 203 203 175 139 229 212 209 203 200
196 189 188 161 204 176 183 202 180 176 193 202 211 231 267 207 266 240 232 228 224 215 209 212 224 234 228 203 219 202 202 220 216 174 215 215 238 217 240 218 220 238 156 154
186 192 197 193 193 165 169 208 195 197 187 215 187 212 208 266 206 245 240 225 228 215 220 214 203 219 214 226 214 190 198 218 229 219 214 210 208 225 212 126 200 136 125 138
192 160 162 184 188 158 186 192 173 184 188 181 213 198 219 226 253 241 248 230 230 230 226 210 203 197 197 218 208 216 210 201 214 217 215 218 122 216 207 203 187 187 195 191
185 185 172 191 182 171 174 170 174 182 202 185 186 210 197 204 224 223 212 237 231 222 226 219 206 217 202 194 203 212 186 199 199 198 191 193 176 127 134 151 186 181 203 201
191 156 178 187 187 175 175 198 194 172 208 187 185 208 195 202 216 237 226 219 257 228 213 227 231 222 205 199 198 211 201 197 193 203 200 195 200 195 194 196 198 190 191 193
199 153 191 163 187 165 169 193 176 182 193 205 196 202 195 172 219 211 296 231 217 242 257 231 222 207 228 213 201 202 231 207 219 215 221 190 184 191 199 199 195 204 198 200
206 193 189 195 187 177 175 173 182 170 166 185 194 205 184 225 194 207 236 259 219 216 216 257 224 219 211 207 208 210 200 199 193 200 203 204 202 204 209 207 197 191 193 190
196 156 185 192 187 159 201 169 204 178 203 184 189 202 200 227 188 205 212 241 237 245 196 215 260 251 233 218 225 213 221 210 206 206 209 209 207 212 207 221 235 223 228 229
191 208 190 197 159 155 184 176 163 182 184 196 202 199 173 207 185 147 166 218 233 229 304 212 196 244 244 210 206 215 213 218 204 203 213 220 221 202 193 196 200 204 197 200
209 211 192 185 188 150 187 160 202 198 187 195 186 200 186 187 189 192 129 208 243 235 203 314 243 219 231 229 213 213 220 201 196 189 199 214 194 203 184 217 207 216 196 201
212 205 201 195 178 185 194 163 175 185 191 190 176 193 199 174 179 188 189 178 209 194 268 214 288 255 237 231 220 229 223 232 228 230 210 220 206 191 191 191 188 198 198 201
220 205 210 198 180 187 200 165 158 200 191 192 184 182 198 201 195 195 228 172 160 205 214 210 191 245 267 244 239 227 213 214 207 201 192 184 201 190 189 192 190 212 200 206
217 217 210 200 192 195 184 184 157 195 176 187 180 191 178 187 190 191 190 202 207 179 196 236 217 184 191 234 230 229 285 267 206 206 202 201 201 205 201 206 211 208 201 205
208 204 206 209 192 189 197 202 158 192 186 175 182 185 189 175 190 197 182 178 186 210 194 230 207 174 198 196 183 245 237 232 217 218 217 237 243 206 202 203 204 203 202 201
209 209 214 207 207 199 190 191 193 185 191 174 188 190 183 187 174 198 212 200 190 191 182 212 201 213 215 204 207 212 185 212 238 233 224 225 220 216 215 213 207 206 205 205
212 206 206 200 203 204 180 189 193 187 187 192 189 192 191 197 198 191 198 204 185 175 197 191 204 223 210 216 206 239 202 205 225 192 267 258 246 239 235 233 226 209 207 223
220 207 217 202 207 203 189 186 200 203 185 188 192 194 193 187 171 182 196 213 202 184 201 200 195 189 184 219 221 208 212 199 197 201 212 221 256 258 259 253 244 243 241 239
220 198 216 213 200 210 194 195 197 206 206 190 193 197 196 200 201 184 202 176 190 199 200 188 206 208 230 195 182 221 205 203 202 221 201 196 210 229 240 251 252 253 244 235
242 164 201 211 215 212 199 196 177 207 185 193 199 193 130 206 190 176 208 210 190 196 189 197 203 189 176 181 182 184 216 218 222 201 205 209 209 215 218 233 230 232 232 232
260 232 225 202 230 220 205 198 197 197 170 89 204 202 204 214 213 221 208 210 196 199 195 188 202 204 210 191 191 202 196 198 190 210 217 224 216 215 219 221 232 231 220 233
300 241 225 230 231 217 212 212 209 207 208 208 211 193 221 225 229 180 206 210 202 198 206 207 202 201 210 219 211 220 203 198 218 218 209 211 222 233 220 205 231 234 222 226
277 275 282 275 259 244 235 225 215 211 212 210 206 205 223 231 219 190 209 206 206 211 208 196 206 206 205 215 212 222 201 204 192 217 209 223 226 213 216 227 228 225 233 225
295 291 277 278 259 258 245 246 264 249 231 199 220 243 242 226 211 208 206 209 213 202 211 199 201 210 208 207 220 187 209 211 197 213 212 221 213 206 200 224 223 228 219 214
296 274 277 280 276 285 247 272 259 245 245 240 245 236 217 218 191 205 209 210 211 209 207 209 210 213 204 203 204 207 200 196 201 212 212 203 215 207 205 211 227 213 207 226
Wind_Speed
30 21 28 25 23 25 25 35 32 28 26 22 32 20 22 22 19 16 14 15 19 18 16 16 16 14 36 60 57 56 58 62 74 64 63 64 64 65 69 73 77 76 71 48
28 25 30 30 27 29 25 25 23 23 26 24 26 23 14 20 24 22 24 24 19 16 13 15 17 27 35 28 48 57 66 63 65 73 67 69 67 57 45 61 69 72 71 68
44 37 35 39 31 28 25 27 33 29 29 27 29 30 14 18 18 23 26 28 21 17 14 13 16 18 26 35 35 45 48 50 54 42 57 54 45 55 44 52 51 54 54 54
45 38 36 32 24 37 36 42 28 23 30 29 22 28 19 13 16 22 31 24 28 21 19 17 13 15 16 24 30 33 31 34 31 41 46 47 51 43 50 43 43 47 45 48
55 32 30 27 24 32 31 24 33 28 29 18 26 23 28 25 16 11 25 29 27 26 27 20 17 17 18 25 20 26 27 29 31 31 37 37 38 41 43 43 56 59 58 60
57 46 27 37 33 34 31 30 30 30 20 29 24 26 23 18 21 20 12 30 28 27 33 25 21 31 22 21 20 26 28 30 35 37 40 42 41 43 44 53 54 58 62 64
61 37 38 40 37 33 35 43 27 32 30 28 26 25 25 22 21 16 24 16 30 24 22 32 32 29 31 27 25 32 36 35 36 42 47 46 52 53 54 56 59 61 62 64
66 42 60 32 38 35 35 45 29 35 30 27 29 22 22 20 28 20 16 19 20 23 35 35 30 21 31 44 33 33 43 39 45 42 49 46 49 52 57 60 59 64 67 72
74 60 58 51 47 40 37 39 23 34 27 33 28 25 22 33 25 27 25 16 18 23 20 28 25 39 30 26 31 34 29 32 35 39 38 43 48 56 55 57 62 62 63 67
69 45 57 58 49 35 55 32 39 36 37 35 28 25 28 40 13 23 23 26 24 19 21 22 28 31 43 38 42 32 41 34 40 47 51 50 50 53 56 61 62 66 65 62
69 71 61 63 40 32 42 39 33 35 34 30 37 25 23 30 14 20 18 26 28 26 23 19 22 23 29 27 28 29 30 32 28 38 41 44 40 39 50 59 60 60 59 59
72 72 66 55 58 33 45 40 51 37 32 32 33 37 29 26 25 18 23 22 28 28 26 25 24 25 27 33 30 35 33 37 30 38 42 37 32 39 53 54 64 56 53 59
77 69 72 66 52 51 61 41 38 32 36 33 33 42 31 31 25 28 24 22 23 20 30 30 26 29 29 30 28 35 35 37 36 39 37 35 32 49 56 64 62 68 62 63
79 78 74 70 49 55 60 41 33 43 34 40 33 39 41 39 36 33 49 28 26 22 22 23 27 29 30 34 30 30 30 28 26 36 42 46 49 54 63 65 63 75 66 66
82 79 76 76 66 64 51 47 36 42 40 35 43 41 40 37 34 34 29 34 33 29 21 26 25 33 25 31 31 29 33 38 35 45 51 55 54 58 63 68 67 65 66 65
84 79 81 81 71 55 64 66 40 48 40 45 41 43 43 36 41 46 31 28 32 36 20 30 22 39 31 24 34 35 34 35 37 44 48 50 48 52 56 59 62 63 66 67
85 87 87 82 84 81 47 61 62 48 48 48 45 49 49 45 37 50 52 40 37 36 27 31 25 31 32 29 30 27 33 31 36 39 42 46 50 54 56 58 62 64 66 68
94 85 86 81 84 78 49 57 59 53 53 53 49 52 55 52 50 46 49 51 37 32 43 31 35 31 36 37 36 29 32 30 32 34 35 39 44 49 53 56 59 60 61 65
100 80 92 85 87 80 52 59 73 71 55 58 59 57 57 50 40 46 52 60 48 41 41 43 38 34 31 36 36 41 39 38 41 43 42 36 36 42 46 48 51 54 57 61
102 63 95 90 67 84 73 72 75 71 61 62 65 67 60 63 58 52 60 34 44 47 41 43 43 44 34 39 37 37 46 48 49 41 49 49 49 37 39 44 48 50 54 57
99 25 48 73 78 88 67 71 52 65 56 73 74 62 29 68 52 49 64 64 51 53 44 45 46 44 40 40 41 42 40 43 45 56 56 55 55 53 51 49 51 53 56 59
101 104 97 55 94 90 80 82 79 64 54 6 73 70 69 70 68 57 65 63 56 58 55 48 50 50 47 49 52 51 54 51 52 51 51 51 52 55 53 56 57 59 61 62
78 105 99 96 95 86 90 92 83 79 79 75 76 63 77 69 55 55 65 65 59 57 59 53 52 54 53 52 52 50 56 55 53 53 58 57 55 56 59 64 65 63 62 64
74 89 89 91 90 95 97 94 87 84 80 74 70 69 74 58 55 61 68 64 59 60 59 56 55 56 57 54 57 56 57 59 58 61 63 60 62 61 65 70 69 69 69 69
74 77 82 80 86 85 87 84 61 71 85 72 82 66 62 59 60 62 70 67 64 60 59 57 57 57 58 59 57 56 62 62 62 67 67 65 64 63 66 75 75 77 72 73
72 72 76 72 70 61 70 53 52 57 62 67 64 61 60 59 49 65 69 68 66 62 58 60 61 59 61 62 63 65 66 62 68 71 72 66 71 70 71 79 85 74 76 86
Wind_Direction
288 274 272 287 304 293 302 297 309 331 325 349 3 336 339 296 281 297 248 227 201 211 212 198 194 198 217 224 225 227 227 231 234 240 243 246 249 252 254 255 261 264 263 271
272 283 261 275 299 285 287 298 325 327 323 320 357 344 308 268 262 274 271 233 228 202 195 200 207 209 216 210 220 228 231 236 240 241 247 250 252 256 265 252 252 257 261 263
272 278 282 268 302 284 287 314 294 298 317 331 340 2 338 336 250 242 240 231 233 243 241 212 209 201 211 225 222 233 234 232 236 248 242 246 250 250 254 255 258 256 269 272
272 272 276 283 287 277 285 314 300 319 306 345 317 345 342 311 341 236 226 255 235 240 225 223 235 215 213 203 220 233 237 235 231 238 242 243 246 246 248 274 261 275 282 279
264 241 254 265 263 274 278 281 289 299 302 293 338 320 349 354 319 300 238 234 246 230 225 242 251 238 236 220 236 221 234 250 248 241 243 245 268 251 253 246 262 265 265 268
261 261 252 272 263 258 274 285 291 295 310 297 308 341 327 330 1 326 333 231 237 255 245 249 250 227 245 247 254 234 245 249 254 256 259 262 258 273 273 272 263 267 263 264
257 248 263 262 265 254 276 291 290 286 310 293 297 338 313 327 355 341 319 315 240 250 273 257 249 236 243 251 254 240 241 245 250 252 253 259 256 260 264 263 264 269 273 273
253 249 260 250 267 254 264 282 270 285 296 300 283 326 263 279 349 344 309 305 314 267 243 250 262 253 242 234 250 257 246 253 251 249 250 262 270 268 266 264 265 262 266 267
252 255 257 259 261 257 265 264 268 275 276 293 288 313 248 345 330 332 343 324 301 306 299 254 243 248 254 247 247 254 257 262 267 270 261 261 265 270 270 271 272 272 270 272
255 247 255 255 256 248 266 256 279 275 294 288 290 317 311 337 307 326 344 332 321 289 296 293 261 239 242 248 251 252 258 266 267 268 270 271 272 278 281 281 280 278 280 280
250 250 251 250 243 253 258 261 261 265 283 293 308 301 260 325 288 266 260 339 321 311 284 286 297 258 228 262 271 255 269 252 261 280 282 281 283 284 279 273 272 273 276 282
242 243 245 247 251 253 259 252 272 276 272 287 276 299 290 289 300 282 259 329 321 312 310 280 271 271 254 247 258 260 250 271 270 275 275 277 279 279 272 272 276 272 279 284
240 244 241 249 247 254 258 246 262 261 274 281 271 287 298 271 283 298 307 296 304 293 305 304 284 264 260 254 255 247 249 250 257 259 267 264 249 258 270 270 288 286 288 287
241 244 240 245 242 250 257 248 258 270 270 270 273 276 291 300 296 297 320 287 273 317 320 308 294 287 267 276 270 264 270 262 260 255 266 274 251 265 276 276 286 273 282 285
238 239 240 244 250 251 244 253 256 266 253 264 266 277 270 275 285 289 288 297 301 265 281 321 315 284 286 279 280 272 253 252 254 253 257 261 262 257 264 265 270 276 282 284
240 241 241 239 248 254 253 251 253 262 252 255 264 275 272 265 286 291 277 275 278 306 277 312 308 278 289 285 283 271 269 266 263 262 265 256 258 268 272 275 278 280 281 284
237 238 237 239 241 248 249 254 253 252 261 256 264 266 267 271 270 289 301 291 288 287 262 303 290 307 305 294 297 299 277 278 270 272 277 275 275 276 276 277 279 281 282 283
235 238 240 240 243 246 252 255 255 255 257 260 260 266 268 276 279 279 290 290 276 265 297 286 302 300 304 305 302 308 293 300 288 290 289 283 282 280 280 280 279 285 285 281
238 242 235 240 242 247 250 255 255 254 257 262 265 267 269 267 264 273 278 291 282 280 288 293 292 285 281 296 297 304 304 297 295 300 294 292 303 297 294 291 287 287 287 286
236 239 237 238 246 243 251 253 256 256 257 265 266 267 271 275 274 270 282 268 280 280 282 284 291 293 291 294 287 292 300 303 303 300 300 299 300 305 314 304 298 297 293 292
232 215 250 243 240 242 249 256 253 258 256 256 260 261 264 274 272 270 274 277 276 278 278 283 283 284 274 285 290 296 290 292 289 295 296 297 299 301 306 314 310 306 302 301
228 232 240 234 242 243 250 252 255 254 257 263 259 264 270 277 276 265 270 273 272 277 278 281 286 289 291 292 296 294 297 296 297 298 306 308 303 304 309 312 316 308 306 306
215 231 237 245 248 251 249 250 254 258 258 261 266 262 272 277 262 264 267 270 269 275 277 283 287 289 295 298 295 296 291 295 297 299 298 301 310 317 310 303 313 311 304 308
225 232 237 240 244 247 250 250 252 256 257 258 261 262 272 256 249 265 264 266 270 271 276 281 285 287 289 294 293 296 294 296 296 301 301 309 311 307 311 317 314 312 312 309
216 220 232 234 240 243 248 252 252 256 258 251 262 256 248 243 252 256 263 266 269 272 275 277 281 285 287 289 295 291 296 299 296 304 304 309 307 301 300 315 315 313 307 305
216 224 225 227 233 235 246 237 243 247 248 250 249 242 248 247 256 255 261 266 268 270 275 278 281 283 284 287 290 293 295 296 300 302 302 306 306 302 302 310 315 307 304 312